Date String (YYYY-MM-DD hh:mm:ss) UTC,Instrument flags,absolute air pressure of the measurement (hPa),sample flow rate (lpm),inlet stack bypass flow (lpm),air temperature of the measurement (°C),ambient temperature measured by the external sensor (°C),aerosol sample conditioner tube jacket temperature (°C),OPC LED temperature (°C),internal box temperature (°C),relative humidity of the measurement (%),span deviation,mass concentration of particles derived from Lorenz-Mie calculation of OPC scattering (μg/m³),mass concentration of particles derived from Lorenz-Mie calculation of OPC scattering (μg/m³),mass concentration of particles derived from Lorenz-Mie calculation of OPC scattering (μg/m³)
DateTimeUTC,F1_M11,P_M11,Q1_M11,Q2_M11,T1_M11,T2_M11,T3_M11,T4_M11,T5_M11,U1_M11,ZSPAN_M11,X0_M11,X2_M11,X1_M11
2024-03-08 17:00:00,SystemResetWarning,0832.9,5.01,000.00,019.0,018.9,000.0,027.3,021.0,19.6,0000.0,0004.42,0003.61,0003.54
2024-03-08 17:01:00,SystemResetWarning,0832.7,5.00,000.00,019.0,018.7,000.0,027.3,020.9,19.7,0000.0,0004.46,0003.63,0003.57
2024-03-08 17:02:00,SystemResetWarning,0832.8,5.00,000.00,019.0,018.5,000.0,027.4,020.9,19.6,0000.0,0004.48,0003.65,0003.58
2024-03-08 17:03:00,SystemResetWarning,0832.8,5.00,000.00,019.0,018.4,000.0,027.4,020.8,19.3,0000.0,0004.56,0003.68,0003.60
2024-03-08 17:04:00,SystemResetWarning,0832.7,5.01,000.00,018.9,018.3,000.0,027.4,020.8,19.3,0000.0,0004.64,0003.71,0003.62
2024-03-08 17:05:00,SystemResetWarning,0832.7,5.00,000.00,018.9,018.2,000.0,027.4,020.8,19.5,0000.0,0004.66,0003.72,0003.63
2024-03-08 17:06:00,SystemResetWarning,0832.7,4.99,000.00,018.9,018.1,000.0,027.4,020.7,19.6,0000.0,0004.64,0003.74,0003.65
2024-03-08 17:07:00,SystemResetWarning,0832.7,4.99,000.00,018.9,018.1,000.0,027.4,020.7,19.7,0000.0,0004.68,0003.75,0003.67
2024-03-08 17:08:00,SystemResetWarning,0832.7,5.02,000.00,018.9,018.0,000.0,027.4,020.7,19.8,0000.0,0004.75,0003.78,0003.68
2024-03-08 17:09:00,SystemResetWarning,0832.7,5.00,000.00,018.8,018.0,000.0,027.4,020.6,19.9,0000.0,0004.81,0003.81,0003.70
2024-03-08 17:10:00,SystemResetWarning,0832.7,4.99,000.00,018.8,017.9,000.0,027.4,020.6,20.0,0000.0,0004.87,0003.83,0003.72
2024-03-08 17:11:00,SystemResetWarning,0832.7,4.99,000.00,018.8,017.9,000.0,027.4,020.6,19.9,0000.0,0004.91,0003.85,0003.73
2024-03-08 17:12:00,SystemResetWarning,0832.7,5.00,000.00,018.8,017.8,000.0,027.4,020.6,19.8,0000.0,0004.99,0003.88,0003.76
2024-03-08 17:13:00,SystemResetWarning,0832.7,5.01,000.00,018.8,017.8,000.0,027.4,020.5,19.9,0000.0,0005.01,0003.90,0003.78
2024-03-08 17:14:00,SystemResetWarning,0832.7,5.01,000.00,018.8,017.8,000.0,027.4,020.5,19.7,0000.0,0005.13,0003.92,0003.79
2024-03-08 17:15:00,SystemResetWarning,0832.7,4.99,000.00,018.8,017.7,000.0,027.4,020.5,19.7,0000.0,0005.19,0003.93,0003.81
2024-03-08 17:16:00,SystemResetWarning,0832.8,5.00,000.00,018.7,017.7,000.0,027.3,020.5,20.0,0000.0,0005.14,0003.93,0003.82
2024-03-08 17:17:00,SystemResetWarning,0832.7,5.00,000.00,018.7,017.7,000.0,027.3,020.5,20.1,0000.0,0005.09,0003.92,0003.82
2024-03-08 17:18:00,SystemResetWarning,0832.7,5.00,000.00,018.7,017.7,000.0,027.3,020.5,20.0,0000.0,0005.10,0003.93,0003.83
2024-03-08 17:19:00,SystemResetWarning,0832.7,5.00,000.00,018.7,017.7,000.0,027.3,020.5,20.0,0000.0,0005.10,0003.93,0003.83
2024-03-08 17:20:00,SystemResetWarning,0832.7,5.00,000.00,018.7,017.7,000.0,027.3,020.5,20.1,0000.0,0005.18,0003.95,0003.84
2024-03-08 17:21:00,SystemResetWarning,0832.7,5.00,000.00,018.7,017.7,000.0,027.3,020.5,19.8,0000.0,0005.25,0003.98,0003.85
2024-03-08 17:22:00,SystemResetWarning,0832.7,5.00,000.00,018.7,017.7,000.0,027.3,020.4,19.6,0000.0,0005.32,0004.00,0003.87
2024-03-08 17:23:00,SystemResetWarning,0832.7,5.00,000.00,018.7,017.7,000.0,027.3,020.4,19.5,0000.0,0005.47,0004.06,0003.91
2024-03-08 17:24:00,SystemResetWarning,0832.8,5.00,000.00,018.6,017.7,000.0,027.3,020.4,19.5,0000.0,0005.62,0004.12,0003.96
2024-03-08 17:25:00,SystemResetWarning,0832.7,5.01,000.00,018.6,017.6,000.0,027.3,020.4,19.4,0000.0,0005.61,0004.14,0003.98
2024-03-08 17:26:00,SystemResetWarning,0832.8,5.00,000.00,018.6,017.6,000.0,027.3,020.4,19.5,0000.0,0005.61,0004.17,0004.02
2024-03-08 17:27:00,SystemResetWarning,0832.8,5.00,000.00,018.6,017.6,000.0,027.2,020.4,19.6,0000.0,0005.94,0004.23,0004.07
2024-03-08 17:28:00,SystemResetWarning,0832.8,4.99,000.00,018.6,017.6,000.0,027.2,020.4,19.6,0000.0,0006.13,0004.28,0004.11
2024-03-08 17:29:00,SystemResetWarning,0832.8,5.00,000.00,018.6,017.6,000.0,027.2,020.4,19.7,0000.0,0006.21,0004.33,0004.15
2024-03-08 17:30:00,SystemResetWarning,0832.8,5.02,000.00,018.6,017.6,000.0,027.2,020.4,19.6,0000.0,0006.22,0004.36,0004.19
2024-03-08 17:31:00,SystemResetWarning,0832.8,5.00,000.00,018.6,017.6,000.0,027.2,020.4,19.6,0000.0,0006.18,0004.38,0004.22
2024-03-08 17:32:00,SystemResetWarning,0832.7,5.00,000.00,018.6,017.6,000.0,027.2,020.3,19.8,0000.0,0006.15,0004.39,0004.25
2024-03-08 17:33:00,SystemResetWarning,0832.8,5.00,000.00,018.6,017.6,000.0,027.2,020.3,19.8,0000.0,0006.14,0004.40,0004.26
2024-03-08 17:34:00,SystemResetWarning,0832.8,5.00,000.00,018.5,017.6,000.0,027.2,020.3,19.8,0000.0,0006.10,0004.38,0004.25
2024-03-08 17:35:00,SystemResetWarning,0832.8,5.00,000.00,018.5,017.6,000.0,027.2,020.3,19.6,0000.0,0006.01,0004.35,0004.22
2024-03-08 17:36:00,SystemResetWarning,0832.8,5.01,000.00,018.5,017.7,000.0,027.2,020.3,19.6,0000.0,0005.96,0004.32,0004.19
2024-03-08 17:37:00,SystemResetWarning,0832.8,5.01,000.00,018.5,017.7,000.0,027.1,020.3,19.2,0000.0,0005.93,0004.30,0004.18
2024-03-08 17:38:00,SystemResetWarning,0832.8,5.00,000.00,018.5,017.7,000.0,027.1,020.3,19.1,0000.0,0005.71,0004.27,0004.14
2024-03-08 17:39:00,SystemResetWarning,0832.8,5.00,000.00,018.5,017.7,000.0,027.1,020.3,19.2,0000.0,0005.54,0004.23,0004.10
2024-03-08 17:40:00,SystemResetWarning,0832.9,4.99,000.00,018.5,017.7,000.0,027.1,020.2,19.2,0000.0,0005.49,0004.19,0004.06
2024-03-08 17:41:00,SystemResetWarning,0832.8,5.00,000.00,018.5,017.7,000.0,027.1,020.2,19.1,0000.0,0005.49,0004.17,0004.04
2024-03-08 17:42:00,SystemResetWarning,0832.8,5.00,000.00,018.4,017.7,000.0,027.1,020.2,19.3,0000.0,0005.51,0004.16,0004.02
2024-03-08 17:43:00,SystemResetWarning,0832.8,5.00,000.00,018.4,017.7,000.0,027.1,020.2,19.5,0000.0,0005.56,0004.15,0003.98
2024-03-08 17:44:00,SystemResetWarning,0832.9,5.00,000.00,018.4,017.7,000.0,027.1,020.2,19.5,0000.0,0005.61,0004.13,0003.96
2024-03-08 17:45:00,SystemResetWarning,0833.1,5.00,000.00,018.4,017.6,000.0,027.1,020.2,19.4,0000.0,0006.57,0004.11,0003.95
2024-03-08 17:46:00,SystemResetWarning,0833.2,5.00,000.00,018.4,017.6,000.0,027.0,020.1,19.4,0000.0,0006.82,0004.10,0003.93
2024-03-08 17:47:00,SystemResetWarning,0833.0,4.99,000.00,018.4,017.6,000.0,027.0,020.1,19.5,0000.0,0006.84,0004.10,0003.94
2024-03-08 17:48:00,SystemResetWarning,0833.3,5.01,000.00,018.4,017.6,000.0,027.0,020.1,19.8,0000.0,0006.81,0004.09,0003.93
2024-03-08 17:49:00,SystemResetWarning,0832.8,5.01,000.00,018.3,017.6,000.0,027.0,020.1,19.6,0000.0,0006.77,0004.08,0003.93
2024-03-08 17:50:00,SystemResetWarning,0832.9,5.01,000.00,018.3,017.6,000.0,027.0,020.1,19.6,0000.0,0006.76,0004.08,0003.93
2024-03-08 17:51:00,SystemResetWarning,0832.8,5.00,000.00,018.3,017.6,000.0,027.0,020.1,19.7,0000.0,0006.77,0004.08,0003.94
2024-03-08 17:52:00,SystemResetWarning,0832.8,4.99,000.00,018.3,017.6,000.0,027.0,020.1,19.6,0000.0,0006.83,0004.08,0003.94
2024-03-08 17:53:00,SystemResetWarning,0833.0,5.00,000.00,018.3,017.6,000.0,027.0,020.1,19.2,0000.0,0006.78,0004.08,0003.94
2024-03-08 17:54:00,SystemResetWarning,0832.8,5.00,000.00,018.3,017.6,000.0,027.0,020.1,19.5,0000.0,0006.74,0004.07,0003.94
2024-03-08 17:55:00,SystemResetWarning,0832.8,5.00,000.00,018.3,017.6,000.0,027.0,020.1,19.5,0000.0,0006.74,0004.07,0003.93
2024-03-08 17:56:00,SystemResetWarning,0832.9,5.00,000.00,018.3,017.6,000.0,026.9,020.1,19.6,0000.0,0005.84,0004.06,0003.93
2024-03-08 17:57:00,SystemResetWarning,0832.9,5.00,000.00,018.3,017.6,000.0,026.9,020.1,19.9,0000.0,0005.36,0004.05,0003.93
2024-03-08 17:58:00,SystemResetWarning,0833.0,5.00,000.00,018.3,017.6,000.0,026.9,020.1,20.2,0000.0,0005.31,0004.04,0003.93
2024-03-08 17:59:00,SystemResetWarning,0833.0,5.00,000.00,018.3,017.6,000.0,026.9,020.1,20.3,0000.0,0005.35,0004.06,0003.95
